Tracking 29892 objects as of 21-Nov-2024
HD Live streaming from Space Station
objects crossing your sky now

SL-8 R/B

Track SL-8 R/B now!
10-day predictions


NORAD ID: 18161
Int'l Code: 1987-057B
Perigee: 958.6 km
Apogee: 1,002.5 km
Inclination: 82.9 °
Period: 104.6 minutes
Semi major axis: 7351 km
RCS: 4.9072 m2 (large)
Launch date: July 6, 1987
Source: Commonwealth of Independent States (former USSR) (CIS)
Launch site: PLESETSK MISSILE AND SPACE COMPLEX (PKMTR)

Note: This is a ROCKET BODY
Your satellite tracking list
Your tracking list is empty




NASA's NSSDC Master Catalog

Two Line Element Set (TLE):
1 18161U 87057B   24325.64104515  .00000141  00000-0  12705-3 0  9990
2 18161  82.9355 212.1863 0029851 279.8934  97.4411 13.77311953857423
Source of the keplerian elements: AFSPC